Cooperstown, ND

8:43 PM CDT on September 26, 2016 (GMT -0500)
Cooperstown

Weather History for KS32 - September, 2012

Change the Weather History Date:

Saturday, September 29, 2012

  Actual Average (KJMS) Record (KJMS)
Temperature  
Mean Temperature 60 °F 52 °F  
Max Temperature 82 °F 64 °F 94 °F (1905)
Min Temperature 39 °F 39 °F 17 °F (1930)
Degree Days  
Heating Degree Days 4 14  
Month to date heating degree days 240  
Since 1 July heating degree days 306  
Cooling Degree Days 0 0  
Month to date cooling degree days 28  
Year to date cooling degree days 443  
Growing Degree Days 10 (Base 50)    
Moisture  
Dew Point 33 °F    
Average Humidity 47    
Maximum Humidity 87    
Minimum Humidity 12    
Precipitation  
Precipitation 0.00 in 0.06 in 1.03 in (1925)
Month to date precipitation 1.95  
Year to date precipitation 16.14  
Sea Level Pressure  
Sea Level Pressure 30.03 in    
Wind  
Wind Speed 6 mph (South)    
Max Wind Speed 18 mph    
Max Gust Speed 25 mph    
Visibility 9 miles    
Events      
T = Trace of Precipitation, MM = Missing Value Source: NWS Daily Summary

Daily Weather History Graph

Daily Weather History Graph

Search for Another Location

Airport or City:

Trip Planner

Search our weather history database for the weather conditions in past years. The results will help you decide how hot, cold, wet, or windy it might be!

Date:

Astronomy

Sep. 29, 2012 Rise Set
Actual Time 7:29 AM CDT 7:14 PM CDT
Civil Twilight 6:58 AM CDT 7:45 PM CDT
Nautical Twilight 6:23 AM CDT 8:20 PM CDT
Astronomical Twilight 5:46 AM CDT 8:57 PM CDT
Moon 6:44 PM CDT (9/29) 7:03 AM CDT (9/29)
Length of Visible Light 12h 46m
Length of Day
11h 45m
Full, 100% of the Moon is Illuminated
Sep 29
Full
Sep 29
Full
Oct 8
Last Quarter
Oct 15
New
Oct 21
First Quarter

Hourly Weather History & Observations

Time (CDT) Temp. Windchill Dew Point Humidity Pressure Visibility Wind Dir Wind Speed Gust Speed Precip Events Conditions
12:15 AM 51.8 °F - 39.2 °F 62% 30.08 in 8.0 mi SSW 3.5 mph - N/A   Clear
12:35 AM 48.2 °F - 39.2 °F 71% 30.07 in 8.0 mi South 3.5 mph - N/A   Clear
12:55 AM 50.0 °F - 39.2 °F 66% 30.08 in 10.0 mi Calm Calm - N/A   Clear
1:15 AM 48.2 °F - 42.8 °F 82% 30.08 in 6.0 mi Calm Calm - N/A   Haze
1:35 AM 46.4 °F - 35.6 °F 66% 30.08 in 10.0 mi Calm Calm - N/A   Clear
1:55 AM 46.4 °F 45.2 °F 37.4 °F 71% 30.08 in 10.0 mi SE 3.5 mph - N/A   Clear
2:15 AM 46.4 °F 44.3 °F 37.4 °F 71% 30.09 in 10.0 mi SE 4.6 mph - N/A   Clear
2:35 AM 44.6 °F 41.4 °F 35.6 °F 71% 30.08 in 10.0 mi SSE 5.8 mph - N/A   Clear
2:55 AM 44.6 °F 41.4 °F 37.4 °F 76% 30.08 in 10.0 mi SSE 5.8 mph - N/A   Clear
3:15 AM 44.6 °F 41.4 °F 37.4 °F 76% 30.08 in 10.0 mi SSE 5.8 mph - N/A   Clear
3:35 AM 42.8 °F 39.3 °F 37.4 °F 81% 30.08 in 10.0 mi SSE 5.8 mph - N/A   Clear
3:55 AM 44.6 °F 43.1 °F 39.2 °F 81% 30.08 in 10.0 mi SSE 3.5 mph - N/A   Clear
4:15 AM 44.6 °F 43.1 °F 39.2 °F 81% 30.08 in 4.0 mi SSE 3.5 mph - N/A   Haze
4:35 AM 44.6 °F 43.1 °F 37.4 °F 76% 30.08 in 4.0 mi South 3.5 mph - N/A   Haze
4:55 AM 44.6 °F 42.2 °F 37.4 °F 76% 30.08 in 5.0 mi South 4.6 mph - N/A   Haze
5:15 AM 41.0 °F 39.0 °F 35.6 °F 81% 30.07 in 10.0 mi SSW 3.5 mph - N/A   Clear
5:35 AM 41.0 °F 39.0 °F 35.6 °F 81% 30.07 in 10.0 mi SW 3.5 mph - N/A   Clear
5:55 AM 39.2 °F - 35.6 °F 87% 30.07 in 9.0 mi Calm Calm - N/A   Clear
6:15 AM 41.0 °F 38.0 °F 35.6 °F 81% 30.07 in 10.0 mi SE 4.6 mph - N/A   Clear
6:35 AM 41.0 °F 39.0 °F 35.6 °F 81% 30.08 in 10.0 mi South 3.5 mph - N/A   Clear
6:55 AM 39.2 °F - 35.6 °F 87% 30.08 in 10.0 mi Calm Calm - N/A   Clear
7:15 AM 39.2 °F 37.0 °F 35.6 °F 87% 30.08 in 10.0 mi SSE 3.5 mph - N/A   Clear
7:35 AM 39.2 °F - 35.6 °F 87% 30.07 in 3.0 mi Calm Calm - N/A   Haze
7:55 AM 39.2 °F 37.0 °F 33.8 °F 81% 30.08 in 10.0 mi SE 3.5 mph - N/A   Clear
8:15 AM 41.0 °F 39.0 °F 35.6 °F 81% 30.08 in 10.0 mi SE 3.5 mph - N/A   Clear
8:35 AM 46.4 °F 45.2 °F 37.4 °F 71% 30.08 in 10.0 mi SE 3.5 mph - N/A   Clear
8:55 AM 50.0 °F - 39.2 °F 66% 30.08 in 10.0 mi SE 3.5 mph - N/A   Clear
9:15 AM 55.4 °F - 37.4 °F 51% 30.08 in 5.0 mi SE 5.8 mph - N/A   Haze
9:35 AM 57.2 °F - 35.6 °F 44% 30.08 in 1.5 mi SE 5.8 mph - N/A   Haze
9:55 AM 60.8 °F - 32.0 °F 34% 30.08 in 1.5 mi SSE 6.9 mph - N/A   Haze
10:15 AM 64.4 °F - 33.8 °F 32% 30.07 in 5.0 mi South 6.9 mph - N/A   Haze
10:35 AM 68.0 °F - 30.2 °F 24% 30.07 in 10.0 mi South 10.4 mph - N/A   Clear
10:55 AM 71.6 °F - 32.0 °F 23% 30.07 in 9.0 mi South 9.2 mph - N/A   Clear
11:15 AM 73.4 °F - 32.0 °F 22% 30.07 in 10.0 mi South 10.4 mph - N/A   Clear
11:35 AM 73.4 °F - 30.2 °F 20% 30.06 in 10.0 mi South 10.4 mph - N/A   Clear
11:55 AM 75.2 °F - 30.2 °F 19% 30.06 in 10.0 mi South 12.7 mph - N/A   Clear
12:15 PM 77.0 °F - 30.2 °F 18% 30.05 in 10.0 mi South 10.4 mph - N/A   Clear
12:35 PM 78.8 °F - 30.2 °F 17% 30.05 in 10.0 mi SSW 12.7 mph 17.3 mph N/A   Clear
12:55 PM 78.8 °F - 32.0 °F 18% 30.04 in 10.0 mi South 13.8 mph 19.6 mph N/A   Clear
1:15 PM 80.6 °F - 32.0 °F 17% 30.03 in 10.0 mi South 16.1 mph 19.6 mph N/A   Clear
1:35 PM 80.6 °F - 28.4 °F 15% 30.02 in 10.0 mi SSW 15.0 mph 19.6 mph N/A   Clear
1:55 PM 82.4 °F - 26.6 °F 13% 30.02 in 10.0 mi SSW 15.0 mph - N/A   Clear
2:15 PM 82.4 °F - 26.6 °F 13% 30.01 in 10.0 mi South 11.5 mph 20.7 mph N/A   Clear
2:35 PM 82.4 °F - 26.6 °F 13% 30.00 in 10.0 mi South 15.0 mph 20.7 mph N/A   Clear
2:55 PM 82.4 °F - 26.6 °F 13% 29.99 in 10.0 mi South 15.0 mph 21.9 mph N/A   Clear
3:15 PM 82.4 °F - 26.6 °F 13% 29.99 in 10.0 mi South 12.7 mph 19.6 mph N/A   Clear
3:35 PM 82.4 °F - 26.6 °F 13% 29.98 in 10.0 mi South 18.4 mph 24.2 mph N/A   Clear
3:55 PM 82.4 °F - 26.6 °F 13% 29.98 in 10.0 mi SSW 13.8 mph 25.3 mph N/A   Clear
4:15 PM 82.4 °F - 24.8 °F 12% 29.97 in 10.0 mi SSW 18.4 mph 24.2 mph N/A   Clear
4:35 PM 82.4 °F - 24.8 °F 12% 29.97 in 8.0 mi SSW 15.0 mph 20.7 mph N/A   Clear
4:55 PM 82.4 °F - 26.6 °F 13% 29.96 in 8.0 mi SSW 12.7 mph 25.3 mph N/A   Clear
5:55 PM 80.6 °F - 28.4 °F 15% 29.96 in 10.0 mi South 12.7 mph - N/A   Clear
6:15 PM 77.0 °F - 28.4 °F 17% 29.96 in 10.0 mi South 10.4 mph - N/A   Clear
6:55 PM 69.8 °F - 30.2 °F 23% 29.95 in 4.0 mi SSE 10.4 mph - N/A   Haze
7:55 PM 60.8 °F - 28.4 °F 29% 29.95 in 10.0 mi SSE 10.4 mph - N/A   Clear
8:15 PM 55.4 °F - 28.4 °F 36% 29.95 in 10.0 mi SSE 8.1 mph - N/A   Clear
8:35 PM 57.2 °F - 30.2 °F 36% 29.95 in 10.0 mi SSE 8.1 mph - N/A   Clear
8:55 PM 55.4 °F - 28.4 °F 36% 29.96 in 10.0 mi SSE 8.1 mph - N/A   Clear
9:15 PM 55.4 °F - 30.2 °F 38% 29.95 in 9.0 mi SSE 8.1 mph - N/A   Clear
9:35 PM 53.6 °F - 30.2 °F 41% 29.96 in 10.0 mi SSE 6.9 mph - N/A   Clear
9:55 PM 55.4 °F - 30.2 °F 38% 29.95 in 10.0 mi SSE 8.1 mph - N/A   Clear
10:35 PM 53.6 °F - 30.2 °F 41% 29.95 in 10.0 mi SSE 8.1 mph - N/A   Clear
10:55 PM 53.6 °F - 32.0 °F 44% 29.95 in 10.0 mi SSE 8.1 mph - N/A   Clear
11:15 PM 53.6 °F - 32.0 °F 44% 29.95 in 10.0 mi SSE 9.2 mph - N/A   Clear
11:35 PM 50.0 °F - 32.0 °F 50% 29.96 in 10.0 mi SSE 8.1 mph - N/A   Clear
11:55 PM 48.2 °F - 30.2 °F 50% 29.95 in 10.0 mi South 9.2 mph - N/A   Clear